TimeCDT,TemperatureF,Dew PointF,Humidity,Sea Level PressureIn,VisibilityMPH,Wind Direction,Wind SpeedMPH,Gust SpeedMPH,PrecipitationIn,Events,Conditions,WindDirDegrees,DateUTC
12:07 AM,24.8,17.6,74,30.45,10.0,NNE,4.6,-,N/A,,Clear,20,2013-10-29 05:07:00
12:27 AM,23.0,17.6,80,30.45,10.0,Calm,Calm,-,N/A,,Clear,0,2013-10-29 05:27:00
12:46 AM,23.0,17.6,80,30.45,10.0,Calm,Calm,-,N/A,,Clear,0,2013-10-29 05:46:00
1:07 AM,21.2,15.8,80,30.45,10.0,Calm,Calm,-,N/A,,Clear,0,2013-10-29 06:07:00
1:27 AM,21.2,15.8,80,30.45,10.0,Calm,Calm,-,N/A,,Clear,0,2013-10-29 06:27:00
1:47 AM,19.4,15.8,86,30.45,10.0,Calm,Calm,-,N/A,,Clear,0,2013-10-29 06:47:00
2:06 AM,17.6,14.0,86,30.44,10.0,Calm,Calm,-,N/A,,Clear,0,2013-10-29 07:06:00
2:27 AM,17.6,14.0,86,30.43,10.0,Calm,Calm,-,N/A,,Clear,0,2013-10-29 07:27:00
2:47 AM,17.6,15.8,93,30.43,10.0,Calm,Calm,-,N/A,,Clear,0,2013-10-29 07:47:00
3:06 AM,17.6,15.8,93,30.43,10.0,Calm,Calm,-,N/A,,Clear,0,2013-10-29 08:06:00
3:27 AM,17.6,14.0,86,30.43,10.0,Calm,Calm,-,N/A,,Clear,0,2013-10-29 08:27:00
3:47 AM,17.6,14.0,86,30.43,10.0,Calm,Calm,-,N/A,,Clear,0,2013-10-29 08:47:00
4:06 AM,17.6,15.8,93,30.42,10.0,Calm,Calm,-,N/A,,Clear,0,2013-10-29 09:06:00
4:27 AM,17.6,15.8,93,30.41,10.0,Calm,Calm,-,N/A,,Clear,0,2013-10-29 09:27:00
4:47 AM,17.6,15.8,93,30.41,10.0,Calm,Calm,-,N/A,,Clear,0,2013-10-29 09:47:00
5:06 AM,-9999,-9999,N/A,-9999,10.0,Calm,Calm,-,N/A,,Clear,0,2013-10-29 10:06:00
5:27 AM,19.4,15.8,86,30.41,10.0,Calm,Calm,-,N/A,,Mostly Cloudy,0,2013-10-29 10:27:00
5:47 AM,21.2,17.6,86,30.41,10.0,Calm,Calm,-,N/A,,Overcast,0,2013-10-29 10:47:00
6:07 AM,21.2,17.6,86,30.40,10.0,Calm,Calm,-,N/A,,Overcast,0,2013-10-29 11:07:00
6:26 AM,21.2,17.6,86,30.40,10.0,Calm,Calm,-,N/A,,Overcast,0,2013-10-29 11:26:00
6:47 AM,21.2,17.6,86,30.38,10.0,Calm,Calm,-,N/A,,Mostly Cloudy,0,2013-10-29 11:47:00
7:07 AM,21.2,19.4,93,30.37,10.0,Calm,Calm,-,N/A,,Scattered Clouds,0,2013-10-29 12:07:00
7:26 AM,21.2,19.4,93,30.37,10.0,Calm,Calm,-,N/A,,Clear,0,2013-10-29 12:26:00
7:47 AM,23.0,21.2,93,30.35,10.0,ENE,3.5,-,N/A,,Clear,70,2013-10-29 12:47:00
8:07 AM,23.0,19.4,86,30.36,10.0,ENE,3.5,-,N/A,,Clear,70,2013-10-29 13:07:00
8:26 AM,23.0,19.4,86,30.35,10.0,Calm,Calm,-,N/A,,Clear,0,2013-10-29 13:26:00
8:47 AM,24.8,21.2,86,30.34,10.0,ENE,3.5,-,N/A,,Clear,70,2013-10-29 13:47:00
9:07 AM,26.6,21.2,80,30.34,10.0,Calm,Calm,-,N/A,,Clear,0,2013-10-29 14:07:00
9:26 AM,26.6,21.2,80,30.34,10.0,Calm,Calm,-,N/A,,Clear,0,2013-10-29 14:26:00
9:47 AM,26.6,23.0,86,30.34,10.0,Calm,Calm,-,N/A,,Clear,0,2013-10-29 14:47:00
10:07 AM,28.4,23.0,80,30.34,10.0,Calm,Calm,-,N/A,,Clear,0,2013-10-29 15:07:00
10:26 AM,30.2,26.6,86,30.34,10.0,Calm,Calm,-,N/A,,Clear,0,2013-10-29 15:26:00
10:47 AM,32.0,26.6,80,30.34,10.0,ENE,3.5,-,N/A,,Clear,70,2013-10-29 15:47:00
11:07 AM,32.0,26.6,80,30.34,10.0,Calm,Calm,-,N/A,,Scattered Clouds,0,2013-10-29 16:07:00
11:26 AM,32.0,26.6,80,30.33,10.0,SE,4.6,-,N/A,,Overcast,140,2013-10-29 16:26:00
11:47 AM,32.0,24.8,75,30.33,10.0,South,3.5,-,N/A,,Overcast,180,2013-10-29 16:47:00
12:07 PM,32.0,24.8,75,30.33,10.0,Calm,Calm,-,N/A,,Overcast,0,2013-10-29 17:07:00
12:26 PM,33.8,24.8,70,30.32,10.0,Calm,Calm,-,N/A,,Overcast,0,2013-10-29 17:26:00
12:47 PM,33.8,24.8,70,30.30,10.0,South,4.6,-,N/A,,Overcast,180,2013-10-29 17:47:00
1:07 PM,35.6,26.6,70,30.29,10.0,South,4.6,-,N/A,,Overcast,190,2013-10-29 18:07:00
1:26 PM,35.6,23.0,60,30.28,10.0,SSW,6.9,-,N/A,,Overcast,210,2013-10-29 18:26:00
1:47 PM,35.6,23.0,60,30.27,10.0,South,6.9,-,N/A,,Overcast,190,2013-10-29 18:47:00
2:07 PM,35.6,23.0,60,30.26,10.0,South,6.9,-,N/A,,Overcast,190,2013-10-29 19:07:00
2:26 PM,35.6,23.0,60,30.26,10.0,SW,9.2,-,N/A,,Mostly Cloudy,220,2013-10-29 19:26:00
2:47 PM,35.6,23.0,60,30.25,10.0,SSW,6.9,-,N/A,,Overcast,200,2013-10-29 19:47:00
3:07 PM,35.6,23.0,60,30.24,10.0,SSW,8.1,-,N/A,,Overcast,200,2013-10-29 20:07:00
3:26 PM,35.6,24.8,65,30.23,10.0,SSW,5.8,-,N/A,,Overcast,210,2013-10-29 20:26:00
3:47 PM,35.6,24.8,65,30.22,10.0,SSW,6.9,-,N/A,,Overcast,210,2013-10-29 20:47:00
4:07 PM,33.8,24.8,70,30.21,10.0,SSW,9.2,-,N/A,,Overcast,200,2013-10-29 21:07:00
4:27 PM,35.6,26.6,70,30.20,10.0,South,8.1,-,N/A,,Overcast,180,2013-10-29 21:27:00
4:46 PM,33.8,24.8,70,30.19,10.0,South,4.6,-,N/A,,Mostly Cloudy,190,2013-10-29 21:46:00
5:07 PM,33.8,26.6,75,30.18,10.0,SSW,3.5,-,N/A,,Mostly Cloudy,200,2013-10-29 22:07:00
5:27 PM,33.8,26.6,75,30.18,10.0,South,3.5,-,N/A,,Overcast,180,2013-10-29 22:27:00
5:46 PM,33.8,26.6,75,30.18,10.0,Calm,Calm,-,N/A,,Overcast,0,2013-10-29 22:46:00
6:07 PM,33.8,24.8,70,30.17,10.0,South,3.5,-,N/A,,Overcast,190,2013-10-29 23:07:00
6:26 PM,32.0,26.6,80,30.17,10.0,Calm,Calm,-,N/A,,Overcast,0,2013-10-29 23:26:00
6:47 PM,32.0,24.8,75,30.17,10.0,Calm,Calm,-,N/A,,Overcast,0,2013-10-29 23:47:00
7:07 PM,32.0,26.6,80,30.17,10.0,Calm,Calm,-,N/A,,Mostly Cloudy,0,2013-10-30 00:07:00
7:26 PM,32.0,26.6,80,30.16,10.0,Calm,Calm,-,N/A,,Overcast,0,2013-10-30 00:26:00
7:47 PM,32.0,26.6,80,30.16,10.0,Calm,Calm,-,N/A,,Overcast,0,2013-10-30 00:47:00
8:07 PM,32.0,26.6,80,30.15,10.0,Calm,Calm,-,N/A,,Overcast,0,2013-10-30 01:07:00
8:26 PM,32.0,26.6,80,30.15,10.0,Calm,Calm,-,N/A,,Overcast,0,2013-10-30 01:26:00
8:47 PM,32.0,26.6,80,30.15,10.0,Calm,Calm,-,N/A,,Overcast,0,2013-10-30 01:47:00
9:07 PM,32.0,26.6,80,30.15,10.0,Calm,Calm,-,N/A,,Overcast,0,2013-10-30 02:07:00
9:26 PM,32.0,28.4,87,30.15,10.0,Calm,Calm,-,N/A,,Overcast,0,2013-10-30 02:26:00
9:47 PM,32.0,28.4,87,30.15,10.0,Calm,Calm,-,N/A,,Overcast,0,2013-10-30 02:47:00
10:07 PM,32.0,28.4,87,30.15,10.0,Calm,Calm,-,N/A,,Overcast,0,2013-10-30 03:07:00
10:26 PM,32.0,28.4,87,30.15,10.0,Calm,Calm,-,N/A,,Overcast,0,2013-10-30 03:26:00
10:47 PM,32.0,28.4,87,30.14,10.0,Calm,Calm,-,N/A,,Overcast,0,2013-10-30 03:47:00
11:07 PM,32.0,28.4,87,30.14,10.0,Calm,Calm,-,N/A,,Overcast,0,2013-10-30 04:07:00
11:26 PM,32.0,28.4,87,30.13,10.0,Calm,Calm,-,N/A,,Overcast,0,2013-10-30 04:26:00
11:47 PM,32.0,28.4,87,30.13,10.0,Calm,Calm,-,N/A,,Overcast,0,2013-10-30 04:47:00